www.pogodaiklimat.ru

Погода и климат >> Архив погоды >> Мексика >> Сомбререте


ПОГОДА в Сомбререте

  • Прогноз погоды в Сомбререте
  • Монитор погоды в Сомбререте

АРХИВ ПОГОДЫ в Сомбререте

Время (UTC), дата Ветер
(напр.,м/с)
 
Видим.   Явления Облачность Т
(С)
Тd
(С)
f
(%)
Тe
(С)
Тes
(С)
Комфортность P
(гПа)
Po
(гПа)
Тmin
(С)
Tmax
(С)
R
(мм)
R24
(мм)
S
(см)
12 15.05 штиль 0 16 км мгла 1/0 1500 м
[As trans]
+10.8 +2.6 57 +11 +11 1006.1 769.3 +9.2 +32.0
15 15.05 штиль 0 16 км 3/0
[Ci fib]
+22.8 +6.9 36 +24 +33 комфорт 1009.0 770.4
18 15.05 В 2 16 км ясно +28.6 +4.7 22 +27 +48 жарко 1006.5 769.9 +8.2 +28.6
21 15.05 С 1 16 км 5/0
[Ci]
+29.8 -3.6 11 +26 +44 жарко 1001.1 768.2
00 16.05 ЮЗ 1 16 км 8/0
[Cs]
+28.4 -4.7 11 +25 +28 комфорт 996.5 767.2 +8.2 +32.6
03 16.05 штиль 0 16 км 6/0
[Cs]
+20.6 -1.2 23 +20 +20 996.8 768.5
06 16.05 Ю 1 16 км 8/0
[Cs]
+18.0 +0.1 30 +19 +19 1000.4 770.0 +32.6
12 16.05 штиль 0 16 км ясно +10.6 +4.1 64 +10 +10 1007.2 769.8 +9.1 +32.6
15 16.05 штиль 0 16 км ясно +22.8 +8.6 40 +24 +34 комфорт 1010.7 771.4
18 16.05 ЮЗ 1 16 км ясно +29.2 +7.4 25 +28 +53 опасность
солнечного
удара
1007.8 770.7 +8.2 +29.2
21 16.05 З 3 16 км ясно +31.8 +0.1 13 +29 +43 жарко 1001.6 768.7
00 17.05 З 3 16 км ясно +29.2 -0.6 14 +26 +29 жарко 995.8 767.3 +8.2 +33.7
03 17.05 З 3 16 км ясно +21.0 +2.3 29 +22 +22 комфорт 996.3 768.7
06 17.05 Ю 2 16 км ясно +17.8 +1.9 34 +18 +18 998.8 769.2 +33.7
12 17.05 ЮЗ 3 16 км ясно +14.9 +2.3 43 +14 +14 1005.0 768.7 +12.4 +33.7
15 17.05 З 3 16 км ясно +22.0 +6.2 36 +23 +29 комфорт 1007.3 769.6
18 17.05 З 3 16 км ясно +28.0 +6.4 25 +27 +45 жарко 1005.2 769.3 +12.4 +28.0
21 17.05 СЗ 5 16 км ясно +28.8 -2.9 12 +26 +35 жарко 999.8 767.3
00 18.05 СЗ 4 16 км ясно +26.2 -4.6 13 +24 +25 комфорт 996.0 766.5 +12.4 +30.2
03 18.05 З 3 16 км ясно +19.3 +0.6 29 +20 +20 996.8 767.7
06 18.05 ЮЗ 2 16 км ясно +15.6 +0.1 35 +16 +16 1000.2 768.7 +30.2
12 18.05 штиль 0 16 км ясно +11.6 +4.9 63 +11 +11 1004.9 767.6 +10.2 +30.2
15 18.05 ЮЗ 4 16 км ясно +21.4 +9.2 46 +23 +28 комфорт 1007.3 768.6
18 18.05 ЮЗ 3 16 км ясно +28.4 +8.8 29 +28 +46 жарко 1004.6 768.3 +10.1 +28.4
21 18.05 З 5 16 км ясно +29.2 -0.9 14 +26 +35 жарко 999.8 767.0
00 19.05 ЮЗ 4 16 км ясно +26.4 -3.3 14 +24 +26 комфорт 996.2 766.5 +10.1 +31.2
12 19.05 штиль 0 16 км ясно +10.4 -1.3 44 +10 +10 1005.2 768.0 +9.0 +31.2
15 19.05 З 2 16 км ясно +20.4 +0.2 26 +21 +29 комфорт 1007.8 768.9
18 19.05 З 2 16 км ясно +29.4 +0.5 15 +27 +48 жарко 1005.6 768.7 +8.0 +30.2
12 20.05 штиль 0 16 км ясно +12.4 +8.4 77 +12 +12 1002.7 767.8 +11.0 +31.2
15 20.05 Ю 1 16 км ясно +20.2 +7.2 43 +22 +31 комфорт 1005.7 768.7
18 20.05 З 4 16 км ясно +30.2 +6.4 22 +29 +43 жарко 1003.3 768.2 +10.2 +30.2
21 20.05 З 5 16 км ясно +32.5 -3.5 10 +29 +38 жарко 998.3 766.6
00 21.05 З 5 16 км ясно +27.6 0.0 17 +25 +27 комфорт 994.3 766.0 +10.2 +33.0
03 21.05 З 3 16 км ясно +20.4 +0.8 27 +21 +21 комфорт 995.3 767.8
06 21.05 ЮЗ 2 16 км ясно +15.8 +1.2 37 +16 +16 998.5 768.4 +33.0
12 21.05 ЮЗ 2 16 км ясно +11.1 +3.7 60 +10 +10 1003.0 766.1 +9.7 +33.0
15 21.05 ЮЗ 3 16 км ясно +21.2 +5.1 35 +22 +28 комфорт 1005.6 767.2
18 21.05 ЮЗ 3 16 км ясно +29.2 +7.6 26 +28 +46 жарко 1003.3 767.1 +9.6 +29.2
21 21.05 ЮЗ 5 16 км ясно +31.6 -1.3 12 +28 +37 жарко 997.4 765.3
00 22.05 З 2 15 км пыль {метель} ясно +28.4 -2.7 13 +26 +28 жарко 992.7 764.7 +9.6 +32.9
03 22.05 З 2 16 км 8/0
[Cs]
+20.8 +1.0 27 +22 +22 комфорт 993.0 765.9
06 22.05 Ю 2 16 км 6/0
[Cs]
+17.6 +0.6 32 +18 +18 996.6 767.3 +32.9

 

Местоположение метеостанции Сомбререте (Мексика): широта 23.63 долгота -103.60 высота над уровнем моря 2351 м.

В архиве по умолчанию представлена погода в Сомбререте за последнюю неделю. Архивные данные за месяц целиком и за предыдущие месяцы, начиная с января 2011 года, Вы можете получить, выбрав интересующий диапазон дат из раскрывающегося списка и нажав кнопку "Ввод!".


*Определитесь, кто Вы:
робот инопланетянин человек

Внимание! Время в таблицах - всемирное. Для получения местного времени необходимо прибавить поправку, которая равна -6 ч.

Смотрите также архив погоды в соседних городах и на ближайших метеорологических станциях:

Погода в Дуранго (Мексика) (112 км)
Погода в Уэхукаре (Мексика) (141 км)
Погода в Сакатекасе (Мексика) (147 км)
Погода в Колотлане (Мексика) (174 км)
Погода в Торреоне (Мексика) (212 км)
Погода в Агуаскальентесе (Мексика) (237 км)
Погода в Тепике (Мексика) (265 км)
Погода в Тепеуанесе (Мексика) (287 км)
Погода в Мазатлане (Мексика) (290 км)
Погода в Лагос де Морено (Мексика) (307 км)

Пояснения к столбцам:

Ветер - указаны скорость ветра в м/с - средняя за 10 мин, порывы в срок и между сроками (в фигурных скобках) и направление, откуда дует ветер: С - северный, СВ - северо-восточный, В - восточный, ЮВ - юго-восточный, Ю - южный, ЮЗ - юго-западный, З - западный, СЗ - северо-западный.
Видимость - горизонтальная дальность видимости в метрах или километрах. При видимости от 1 до 10 км при отсутствии осадков обычно наблюдается дымка, при ухудшении видимости до 1 км и менее - туман. В сухую погоду видимость может ухудшаться дымом, пылью или мглою.
Явления - указаны атмосферные явления, наблюдавшиеся в срок или в последний час перед сроком; фигурными скобками обозначены явления, наблюдавшиеся между сроками (за 1-3 часа до срока); квадратными скобками обозначены град или гололедные отложения с указанием их диаметра в мм.
Облачность - указаны через наклонную черту общая и нижняя облачность в баллах и высота нижней границы облаков в метрах; квадратными скобками обозначены формы облаков: Ci - перистые, Cs - перисто-слоистые, Cc - перисто-кучевые, Ac - высококучевые, As - высокослоистые, Sc - слоисто-кучевые, Ns - слоисто-дождевые, Cu - кучевые, Cb - кучево-дождевые. Подробнее классификацию облаков см. в Атласе облаков (PDF).
T - Температура воздуха - температура, измеренная на высоте 2 м над землей.
Td - Температура точки росы - температура, при понижении до которой содержащийся в воздухе водяной пар достигнет насыщения.
f - Относительная влажность воздуха - влажноcть воздуха, измеренная на высоте 2 м над землей.
Te - Эффективная температура - температура, которую ощущает одетый по сезону человек в тени. Характеристика душности погоды. При расчете учитывается влияние влажности воздуха и скорости ветра на теплоощущения человека.
Tes - Эффективная температура на солнце - температура, которую ощущает человек, с поправкой на солнечный нагрев. Характеристика знойности погоды. Зависит от высоты солнца над горизонтом, облачности и скорости ветра. Ночью, в пасмурную погоду, а также при ветре 12 м/с и более поправка равна нулю.
P - Атмосферное давление - приведенное к уровню моря атмосферное давление.
Po - Атмосферное давление - измеренное на уровне метеостанции атмосферное давление.
Tmin - Минимальная температура - минимум температуры воздуха на высоте 2 м над землей.
Tmax - Максимальная температура - максимум температуры воздуха на высоте 2 м над землей.
R - Количество осадков - Количество выпавших осадков за период времени, мм. При наведении курсора мыши на число - период времени, за который выпало указанное количество осадков.
R24 - Количество осадков - Количество выпавших осадков за 24 часа, мм.
S - Снежный покров - Высота снежного покрова, см. При наведении курсора мыши на число - состояние снежного покрова и степень покрытия местности в баллах.